SL-14 DEB, 47078

Orbit data source: Space-Track

SL-14 DEB, 47078 is space debris in LEO originally from a launch on Thu, 15 Aug 1991 UTC launched from the Plesetsk Missile And Space Complex (PKMTR). Debris objects in space refer to the collection of defunct objects orbiting the Earth. Examples of debris include non-operational satellites, rocket bodies, and fragments generated from explosions, collisions, or faulty payload assembly.

Loading next visibility...
SL-14 DEB details
Identifier
47078, 1991-056DC
Orbit
LEO
Last TLE update3 days ago
Origin
Flag of CISRosgidromet (CIS)
ManufacturerUnknown
MissionSpacecraft
Bus & MotorUnknown
MassUnknown
Launch date (UTC)
1991-08-15 (33 years ago)
Launch vehicleUnknown
Launch site
Plesetsk Missile And Space Complex (PKMTR)
Object type
Payload
Rocket body
Debris
Shape & HBRUnknown
Radar Cross SectionSmall (<0.1 m²)

Expand to show TLE details & history

TLE from 3 days ago
0 SL-14 DEB
1 47078U 91056DC  24334.52382182  .00001907  00000-0  41066-2 0  9990
2 47078  82.5536 156.2881 0046343 287.8792  71.7286 13.28819070197503
Epoch: 2024-11-29T12:34Z
Definitive object data (Epoch: 2024-11-29T12:34:18.205Z)
Latitude-0°
Longitude-101.17726°
Altitude1,143.25 km
Speed7.286 km/s
True Right ascension10h 25m 09s
True Declination0° 00' 00"
Sunlit
Object was in daylight at TLE epoch
Visualization TLE readout
Latitude39.77069°
Longitude-97.08856°
Altitude1,173.945 km
Speed7.262 km/s
Apparent Right ascension14h 27m 22s
Apparent Declination16° 34' 33"
Sunlit
Object is in daylight
Visualization observer readout
Local Sidereal Time09:01:36
Azimuth82.35° E
Elevation17.003°
Doppler factor1
Orbital elements
Apogee altitude1,183.329 km
Perigee altitude1,113.568 km
Semi-major axis7,526.586 km
Eccentricity0.0046343
Inclination82.5536°
RAAN156.2881°
Arg. of periapsis287.8792°
True anomaly72.23379°
Mean anomaly71.7286°
Eccentric anomaly71.9811°
Mean motion3.32389 °/min
BSTAR0.0041066
Orbital period108.31 mins
Loading maneuver chart data...
Loading historical data...
Loading historical data...
Loading historical data...
Loading historical data...
Loading historical data...
Loading historical data...
Loading historical data...

SL-14 DEB Visibility forecast

Observer location: undefined°, undefined

Span
Click to sort rows by Start time (UTC) header in descending order
Start Az.
Max El. time (UTC)
Max El. Az.
Max El.
End time (UTC)
End Az.
4 mins2024-12-02 11:14:54.381Z82.591° E2024-12-02 11:14:54.381Z82.591° E16.226°2024-12-02 11:18:54.381Z46.687° ENE
12 mins2024-12-02 12:57:54.381Z192.199° SSW2024-12-02 13:03:54.381Z318.449° NNW44.118°2024-12-02 13:09:54.381Z4.653° NNE
5 mins2024-12-02 14:51:54.381Z280.26° WNW2024-12-02 14:53:54.381Z297.669° NW12.778°2024-12-02 14:56:54.381Z322.976° NNW
8 mins2024-12-02 22:30:54.381Z31.832° NE2024-12-02 22:34:54.381Z74.086° E21.31°2024-12-02 22:38:54.381Z112.407° ESE
12 mins2024-12-03 00:18:54.381Z342.652° N2024-12-03 00:23:54.381Z280.209° WNW41.659°2024-12-03 00:30:54.381Z188.927° SSW
|